[Iaude] MPEC F95: 2018 FP3 [a=2.06,e=0.42,i=5.4,H=21.3]

mpec at mpcdb1.cfa.harvard.edu mpec at mpcdb1.cfa.harvard.edu
Thu Mar 22 10:13:24 EDT 2018


M.P.E.C. 2018-F95                                Issued 2018 Mar. 22, 14:09 UT
 
     The Minor Planet Electronic Circulars contain information on unusual
         minor planets and routine data on comets.  They are published
    on behalf of Division F of the International Astronomical Union by the
          Minor Planet Center, Smithsonian Astrophysical Observatory,
                          Cambridge, MA 02138, U.S.A.

             Prepared using the Tamkin Foundation Computer Network

                              MPC at CFA.HARVARD.EDU
            URL https://www.minorplanetcenter.net/    ISSN 1523-6714


                                   2018 FP3
 
Observations:
     K18F03P* C2018 03 20.32190 11 45 16.26 -05 00 29.5          21.7 GUEF095G96
     K18F03P  C2018 03 20.32705 11 45 15.85 -05 00 26.0          20.7 GUEF095G96
     K18F03P  C2018 03 20.33219 11 45 15.51 -05 00 21.9          21.1 GUEF095G96
     K18F03P  C2018 03 20.33732 11 45 15.18 -05 00 18.6          20.4 GUEF095G96
     K18F03P  C2018 03 20.37725 11 45 12.49 -04 59 49.8          21.4 GUEF095I52
     K18F03P  C2018 03 20.37974 11 45 12.36 -04 59 48.1          21.9 GUEF095I52
     K18F03P  C2018 03 20.38222 11 45 12.19 -04 59 46.8          21.8 GUEF095I52
     K18F03P  C2018 03 20.38471 11 45 12.02 -04 59 44.0          21.0 GUEF095I52
     K18F03P  C2018 03 20.40599 11 45 10.62 -04 59 28.9          21.8 GUEF095G96
     K18F03P  C2018 03 20.40964 11 45 10.34 -04 59 26.8          21.4 GUEF095G96
     K18F03P  C2018 03 20.41327 11 45 10.13 -04 59 23.5          21.4 GUEF095G96
     K18F03P  C2018 03 20.41724 11 45 09.85 -04 59 21.3          21.4 GUEF095G96
     K18F03P KC2018 03 20.46032 11 45 07.97 -04 58 32.5          21.5 RUEF095474
     K18F03P KC2018 03 20.46384 11 45 07.71 -04 58 29.3          21.2 RUEF095474
     K18F03P KC2018 03 20.49020 11 45 05.99 -04 58 11.6          21.5 RUEF095474
     K18F03P KC2018 03 20.49654 11 45 05.53 -04 58 06.6          21.6 RUEF095474
     K18F03P KC2018 03 21.25837 11 44 17.75 -04 49 12.5                oEF095711
     K18F03P KC2018 03 21.26213 11 44 17.47 -04 49 10.2                oEF095711
     K18F03P KC2018 03 21.26587 11 44 17.21 -04 49 07.4                oEF095711
     K18F03P  C2018 03 21.29880211 44 15.00 -04 48 44.1          20.8 GUEF095H01
     K18F03P  C2018 03 21.30289111 44 14.72 -04 48 41.1          20.7 GUEF095H01
     K18F03P  C2018 03 21.31245711 44 14.07 -04 48 34.1          20.7 GUEF095H01
     K18F03P  C2018 03 21.31934411 44 13.60 -04 48 29.1          20.9 GUEF095H01
     K18F03P  C2018 03 21.33384 11 44 12.68 -04 48 18.2          21.5 GUEF095G96
     K18F03P  C2018 03 21.33931 11 44 12.29 -04 48 14.0          21.6 GUEF095G96
     K18F03P  C2018 03 21.34481 11 44 11.89 -04 48 09.7                UEF095G96
     K18F03P  C2018 03 21.35033 11 44 11.51 -04 48 05.7                UEF095G96
     K18F03P |C2018 03 22.11709 11 43 23.55 -04 38 22.6          20.9 GUEF095807
     K18F03P |C2018 03 22.12369 11 43 23.10 -04 38 17.4          20.7 GUEF095807
     K18F03P  C2018 03 22.36980 11 43 06.73 -04 35 28.2          21.3 GUEF095V06
     K18F03P  C2018 03 22.37134 11 43 06.58 -04 35 27.0                UEF095V06
     K18F03P  C2018 03 22.37289 11 43 06.46 -04 35 25.5                UEF095V06
 
Observer details:
474 Mount John Observatory, Lake Tekapo.  Observers A. C. Gilmore,
    P. M. Kilmartin.  Measurer P. M. Kilmartin.  1.0-m f/7.7 reflector + CCD.
711 McDonald Observatory.  Observer J. G. Ries.  2.1-m reflector + CCD + focal
    reducer.
807 Cerro Tololo.  Observers T. Linder, R. Holmes.  0.61-m f/6.5 astrograph
    + CCD.
G96 Mt. Lemmon Survey.  Observers J. A. Johnson, G. J. Leonard.  Measurers
    B. M. Africano, E. J. Christensen, D. C. Fuls, A. R. Gibbs, A. D. Grauer,
    J. A. Johnson, R. A. Kowalski, S. M. Larson, G. J. Leonard, R. L. Seaman,
    F. C. Shelly.  1.5-m reflector + 10K CCD.
H01 Magdalena Ridge Observatory, Socorro.  Observers W. H. Ryan, E. V. Ryan.
    Measurer W. H. Ryan.  2.4-m f/8.9 reflector + CCD.
I52 Steward Observatory, Mt. Lemmon Station.  Observer R. A. Kowalski.
    Measurers B. M. Africano, E. J. Christensen, D. C. Fuls, A. R. Gibbs,
    A. D. Grauer, J. A. Johnson, R. A. Kowalski, S. M. Larson, G. J. Leonard,
    R. L. Seaman, F. C. Shelly.  1.0-m reflector + CCD.
V06 Catalina Sky Survey-Kuiper.  Observer E. J. Christensen.  Measurers
    B. M. Africano, E. J. Christensen, D. C. Fuls, A. R. Gibbs, A. D. Grauer,
    J. A. Johnson, R. A. Kowalski, S. M. Larson, G. J. Leonard, R. L. Seaman,
    F. C. Shelly.  1.55-m reflector + CCD.
 
Orbital elements:
2018 FP3                                                 Earth MOID = 0.1997 AU
Epoch 2018 Mar. 23.0 TT = JDT 2458200.5                 MPC
M 323.88502              (2000.0)            P               Q
n   0.33247034     Peri.   56.06221     -0.17411267     +0.98398184
a   2.0636408      Node   203.99786     -0.93167763     -0.17719196
e   0.4204463      Incl.    5.39930     -0.31884411     -0.01956415
P   2.96           H   21.3           G   0.15           U   8
Residuals in seconds of arc
180320 G96  0.3+  0.1-    180320 G96  0.1+  0.2-    180321 H01  0.0   0.1-
180320 G96  0.6-  0.3-    180320 474  0.1+  0.0     180321 G96  0.3+  0.2-
180320 G96  0.5-  0.1+    180320 474  0.3-  0.7+    180321 G96  0.1+  0.0
180320 G96  0.3-  0.2-    180320 474  0.3+  0.5-    180321 G96  0.3-  0.3+
180320 I52  0.3-  0.0     180320 474  0.2-  0.0     180321 G96  0.4-  0.2+
180320 I52  0.2+  0.1-    180321 711  0.4+  0.4+    180322 807  0.1+  0.2-
180320 I52  0.2+  0.6-    180321 711  0.1+  0.0     180322 807  0.1+  0.1+
180320 I52  0.1+  0.5+    180321 711  0.0   0.1+    180322 V06  0.4+  0.2-
180320 G96  0.4+  0.3+    180321 H01  0.0   0.1-    180322 V06  0.3-  0.2-
180320 G96  0.1-  0.2-    180321 H01  0.0   0.0     180322 V06  0.5-  0.1+
180320 G96  0.4+  0.5+    180321 H01  0.0   0.1-

Ephemeris:
2018 FP3                 a,e,i = 2.06, 0.42, 5                   q = 1.1960
Date    TT    R. A. (2000) Decl.     Delta      r     Elong.  Phase     V
2018 02 20    12 03 43.3 -07 58 04   0.8402  1.7513   146.4    18.2    23.1
...
2018 03 07    11 57 09.0 -07 04 03   0.6946  1.6681   162.6    10.2    22.3
...
2018 03 15    11 50 33.2 -05 58 18   0.6340  1.6238   171.1     5.4    21.8
...
2018 03 21    11 44 33.9 -04 52 13   0.5970  1.5908   173.8     3.9    21.5
2018 03 22    11 43 30.7 -04 39 57   0.5915  1.5854   173.4     4.2    21.5
2018 03 23    11 42 26.8 -04 27 21   0.5863  1.5799   172.8     4.6    21.5
...
2018 03 29    11 35 58.4 -03 05 51   0.5587  1.5473   166.7     8.6    21.6
...
2018 04 06    11 27 45.3 -01 06 40   0.5324  1.5046   156.8    15.2    21.7
...
2018 04 21    11 17 27.7 +02 33 00   0.5099  1.4276   138.6    27.7    21.8

A. U. Tomatic                (C) Copyright 2018 MPC           M.P.E.C. 2018-F95



More information about the Iaude mailing list